| time (UTC) | temp C | wind direction | speed KPH | gust KPH | rain 1hr cm | rain 24hr cm | rain mn cm | humidity % | barometer mb |
| 20260510100049 | 10 | 164 | 4.8 | 14.5 | 0.00 | 0.00 | 0.00 | 92 | 1006.7 |
| 20260510094551 | 10 | 216 | 4.8 | 11.3 | 0.00 | 0.00 | 0.00 | 93 | 1006.9 |
| 20260510093038 | 10 | 222 | 3.2 | 12.9 | 0.00 | 0.00 | 0.00 | 91 | 1007.1 |
| 20260510091536 | 10 | 212 | 4.8 | 14.5 | 0.00 | 0.00 | 0.00 | 91 | 1007.0 |
| 20260510090045 | 10 | 252 | 6.4 | 12.9 | 0.00 | 0.00 | 0.00 | 91 | 1006.5 |
| 20260510084541 | 10 | 195 | 4.8 | 14.5 | 0.00 | 0.00 | 0.00 | 90 | 1006.6 |
| 20260510083033 | 10 | 192 | 4.8 | 8.0 | 0.00 | 0.00 | 0.00 | 90 | 1006.7 |
| 20260510081544 | 11 | 219 | 6.4 | 17.7 | 0.00 | 0.00 | 0.00 | 90 | 1006.7 |
| 20260510080039 | 11 | 195 | 8.0 | 19.3 | 0.00 | 0.00 | 0.00 | 90 | 1006.9 |
| 20260510074537 | 11 | 229 | 9.7 | 22.5 | 0.00 | 0.00 | 0.00 | 88 | 1007.0 |
| 20260510073035 | 11 | 210 | 11.3 | 24.1 | 0.00 | 0.00 | 0.00 | 87 | 1006.9 |
| 20260510071539 | 11 | 245 | 9.7 | 22.5 | 0.00 | 0.00 | 0.00 | 87 | 1006.5 |
| 20260510070039 | 11 | 180 | 9.7 | 20.9 | 0.00 | 0.00 | 0.00 | 87 | 1006.5 |
| 20260510064538 | 11 | 202 | 12.9 | 25.7 | 0.00 | 0.00 | 0.00 | 85 | 1007.0 |
| 20260510063037 | 11 | 230 | 9.7 | 19.3 | 0.00 | 0.00 | 0.00 | 83 | 1006.8 |
| 20260510061531 | 12 | 181 | 12.9 | 22.5 | 0.00 | 0.00 | 0.00 | 83 | 1006.7 |
| 20260510060033 | 11 | 245 | 9.7 | 30.6 | 0.00 | 0.00 | 0.00 | 83 | 1006.6 |
| 20260510054532 | 11 | 239 | 11.3 | 22.5 | 0.00 | 0.00 | 0.00 | 82 | 1006.9 |
| 20260510053036 | 12 | 220 | 11.3 | 32.2 | 0.00 | 0.00 | 0.00 | 82 | 1006.9 |
| 20260510051532 | 11 | 224 | 12.9 | 27.4 | 0.00 | 0.00 | 0.00 | 82 | 1007.1 |
| 20260510050035 | 11 | 154 | 12.9 | 25.7 | 0.00 | 0.00 | 0.00 | 82 | 1006.8 |
| 20260510044535 | 11 | 257 | 11.3 | 22.5 | 0.00 | 0.00 | 0.00 | 82 | 1006.8 |
| 20260510043037 | 11 | 175 | 11.3 | 24.1 | 0.00 | 0.00 | 0.00 | 82 | 1006.7 |
| 20260510041535 | 11 | 219 | 8.0 | 12.9 | 0.00 | 0.00 | 0.00 | 83 | 1006.5 |
| 20260510040035 | 10 | 217 | 1.6 | 11.3 | 0.00 | 0.00 | 0.00 | 84 | 1006.0 |
| 20260510034541 | 11 | 202 | 1.6 | 11.3 | 0.00 | 0.00 | 0.00 | 82 | 1006.2 |
| 20260510033035 | 11 | 218 | 4.8 | 12.9 | 0.00 | 0.00 | 0.00 | 82 | 1006.7 |
| 20260510031537 | 11 | 193 | 3.2 | 8.0 | 0.00 | 0.00 | 0.00 | 82 | 1006.7 |
| 20260510030039 | 11 | 217 | 1.6 | 9.7 | 0.00 | 0.00 | 0.00 | 82 | 1006.8 |
| 20260510024538 | 11 | 217 | 6.4 | 14.5 | 0.00 | 0.00 | 0.00 | 81 | 1007.1 |
| 20260510023035 | 11 | 225 | 3.2 | 9.7 | 0.00 | 0.00 | 0.00 | 81 | 1007.2 |
| 20260510021538 | 11 | 133 | 1.6 | 9.7 | 0.00 | 0.00 | 0.00 | 81 | 1006.9 |
| 20260510020044 | 11 | 174 | 3.2 | 9.7 | 0.00 | 0.00 | 0.00 | 81 | 1007.1 |
| 20260510014541 | 10 | 0 | 3.2 | 9.7 | 0.00 | 0.00 | 0.00 | 81 | 1007.3 |
| 20260510013036 | 10 | 198 | 4.8 | 16.1 | 0.00 | 0.00 | 0.00 | 80 | 1007.1 |
| 20260510011541 | 11 | 214 | 3.2 | 9.7 | 0.00 | 0.00 | 0.00 | 80 | 1007.1 |
| 20260510010037 | 11 | 255 | 3.2 | 8.0 | 0.00 | 0.00 | 0.00 | 79 | 1007.4 |
| 20260510004539 | 11 | 165 | 1.6 | 9.7 | 0.00 | 0.00 | 0.00 | 79 | 1007.6 |
| 20260510003039 | 11 | 215 | 4.8 | 9.7 | 0.00 | 0.00 | 0.00 | 79 | 1007.8 |
| 20260510001537 | 11 | 0 | 3.2 | 9.7 | 0.00 | 0.00 | 0.00 | 79 | 1007.5 |
| 20260510000057 | 11 | 212 | 3.2 | 12.9 | 0.00 | 0.00 | 0.00 | 79 | 1007.5 |
| 20260509234547 | 11 | 219 | 6.4 | 14.5 | 0.00 | 0.00 | 0.00 | 79 | 1007.6 |
| 20260509233034 | 11 | 234 | 8.0 | 20.9 | 0.00 | 0.00 | 0.00 | 79 | 1007.5 |
| 20260509231534 | 11 | 139 | 6.4 | 19.3 | 0.00 | 0.00 | 0.00 | 77 | 1007.4 |
| 20260509230036 | 11 | 228 | 6.4 | 16.1 | 0.00 | 0.00 | 0.00 | 75 | 1007.5 |
| 20260509224532 | 12 | 205 | 9.7 | 20.9 | 0.00 | 0.00 | 0.00 | 75 | 1007.5 |
| 20260509223036 | 12 | 174 | 9.7 | 22.5 | 0.00 | 0.00 | 0.00 | 73 | 1007.5 |
| 20260509221535 | 12 | 248 | 8.0 | 17.7 | 0.00 | 0.00 | 0.00 | 74 | 1007.9 |
| 20260509220036 | 12 | 243 | 4.8 | 17.7 | 0.00 | 0.00 | 0.00 | 75 | 1007.6 |
| 20260509214534 | 12 | 224 | 12.9 | 25.7 | 0.00 | 0.00 | 0.00 | 74 | 1007.9 |
| 20260509213038 | 12 | 229 | 8.0 | 22.5 | 0.00 | 0.00 | 0.00 | 71 | 1007.8 |
| 20260509211534 | 13 | 229 | 6.4 | 22.5 | 0.00 | 0.00 | 0.00 | 69 | 1007.9 |
| 20260509210039 | 13 | 215 | 8.0 | 20.9 | 0.00 | 0.00 | 0.00 | 69 | 1008.1 |
| 20260509204541 | 12 | 179 | 8.0 | 19.3 | 0.00 | 0.00 | 0.00 | 69 | 1008.1 |
| 20260509203034 | 13 | 138 | 12.9 | 22.5 | 0.00 | 0.00 | 0.00 | 67 | 1008.3 |
| 20260509201539 | 15 | 214 | 11.3 | 24.1 | 0.00 | 0.00 | 0.00 | 64 | 1008.2 |
| 20260509200045 | 15 | 174 | 12.9 | 22.5 | 0.00 | 0.00 | 0.00 | 64 | 1008.2 |
| 20260509194539 | 14 | 193 | 11.3 | 25.7 | 0.00 | 0.00 | 0.00 | 62 | 1008.5 |
| 20260509193038 | 15 | 200 | 4.8 | 12.9 | 0.00 | 0.00 | 0.00 | 62 | 1008.6 |
| 20260509191534 | 15 | 176 | 8.0 | 29.0 | 0.00 | 0.00 | 0.00 | 59 | 1008.6 |
| 20260509190038 | 15 | 250 | 12.9 | 32.2 | 0.00 | 0.00 | 0.00 | 60 | 1008.7 |
| 20260509184554 | 15 | 202 | 16.1 | 27.4 | 0.00 | 0.00 | 0.00 | 58 | 1008.7 |
| 20260509183038 | 13 | 240 | 19.3 | 30.6 | 0.00 | 0.00 | 0.00 | 58 | 1008.9 |
| 20260509181546 | 14 | 230 | 16.1 | 32.2 | 0.00 | 0.00 | 0.00 | 55 | 1008.8 |
| 20260509180037 | 14 | 208 | 12.9 | 24.1 | 0.00 | 0.00 | 0.00 | 60 | 1009.0 |
| 20260509174537 | 13 | 266 | 16.1 | 22.5 | 0.00 | 0.00 | 0.00 | 59 | 1009.1 |
| 20260509173036 | 13 | 219 | 12.9 | 19.3 | 0.00 | 0.00 | 0.00 | 56 | 1009.3 |
| 20260509171537 | 13 | 260 | 14.5 | 22.5 | 0.00 | 0.00 | 0.00 | 55 | 1009.4 |
| 20260509170039 | 14 | 259 | 11.3 | 17.7 | 0.00 | 0.00 | 0.00 | 57 | 1009.4 |
| 20260509164531 | 15 | 255 | 9.7 | 22.5 | 0.00 | 0.00 | 0.00 | 53 | 1009.5 |
| 20260509163038 | 15 | 245 | 6.4 | 16.1 | 0.00 | 0.00 | 0.00 | 44 | 1009.6 |
| 20260509161534 | 15 | 229 | 4.8 | 16.1 | 0.00 | 0.00 | 0.00 | 42 | 1009.7 |
| 20260509160036 | 15 | 243 | 11.3 | 19.3 | 0.00 | 0.00 | 0.00 | 42 | 1010.0 |
| 20260509154541 | 15 | 243 | 9.7 | 19.3 | 0.00 | 0.00 | 0.00 | 42 | 1010.4 |
| 20260509153044 | 15 | 231 | 6.4 | 16.1 | 0.00 | 0.00 | 0.00 | 44 | 1010.7 |
| 20260509151538 | 15 | 203 | 8.0 | 19.3 | 0.00 | 0.00 | 0.00 | 40 | 1011.0 |
| 20260509150041 | 15 | 227 | 8.0 | 17.7 | 0.00 | 0.00 | 0.00 | 45 | 1011.1 |
| 20260509144549 | 14 | 242 | 9.7 | 14.5 | 0.00 | 0.00 | 0.00 | 48 | 1011.2 |
| 20260509143036 | 13 | 231 | 8.0 | 20.9 | 0.00 | 0.00 | 0.00 | 48 | 1011.2 |
| 20260509141534 | 13 | 204 | 9.7 | 19.3 | 0.00 | 0.00 | 0.00 | 46 | 1011.2 |
| 20260509140038 | 13 | 167 | 8.0 | 17.7 | 0.00 | 0.00 | 0.00 | 50 | 1011.2 |
| 20260509134559 | 12 | 231 | 11.3 | 20.9 | 0.00 | 0.00 | 0.00 | 49 | 1011.1 |
| 20260509133045 | 12 | 226 | 9.7 | 19.3 | 0.00 | 0.00 | 0.00 | 51 | 1011.2 |
| 20260509131538 | 12 | 236 | 12.9 | 20.9 | 0.00 | 0.00 | 0.00 | 51 | 1011.3 |
| 20260509130051 | 11 | 211 | 4.8 | 17.7 | 0.00 | 0.00 | 0.00 | 54 | 1011.4 |
| 20260509124535 | 11 | 238 | 4.8 | 14.5 | 0.00 | 0.00 | 0.00 | 57 | 1011.6 |
| 20260509123032 | 10 | 222 | 4.8 | 11.3 | 0.00 | 0.00 | 0.00 | 60 | 1011.6 |
| 20260509121553 | 9 | 200 | 1.6 | 8.0 | 0.00 | 0.00 | 0.00 | 60 | 1011.6 |
| 20260509120034 | 8 | 228 | 0.0 | 4.8 | 0.00 | 0.00 | 0.00 | 62 | 1011.5 |
| 20260509114537 | 7 | 234 | 0.0 | 6.4 | 0.00 | 0.00 | 0.00 | 63 | 1011.6 |
| 20260509113040 | 7 | 206 | 1.6 | 4.8 | 0.00 | 0.00 | 0.00 | 66 | 1011.7 |
| 20260509111554 | 6 | 98 | 1.6 | 4.8 | 0.00 | 0.00 | 0.00 | 69 | 1011.3 |
| 20260509110038 | 3 | 173 | 0.0 | 3.2 | 0.00 | 0.00 | 0.00 | 74 | 1011.6 |
| 20260509104543 | 2 | 0 | 0.0 | 3.2 | 0.00 | 0.00 | 0.00 | 79 | 1011.5 |
| 20260509103032 | 1 | 0 | 0.0 | 0.0 | 0.00 | 0.00 | 0.00 | 81 | 1011.4 |
| 20260509101548 | 1 | 0 | 0.0 | 0.0 | 0.00 | 0.00 | 0.00 | 83 | 1011.4 |